[[{"header":{"parameterUnit":"m.s-1","parameterCategory":1,"la1":30.2992,"la2":30.254,"lo1":-89.0895,"lo2":-89.0443,"dy":0.0025,"dx":0.0025,"nx":19,"ny":19,"refTime":"2026-03-08T03:00:00:Z","depth":0,"parameterNumber":2,"parameterNumberName":"U-component_of_WINDS"},"data":[0,0,0,0.7813,0.7816,0.7967,0.7968,0.8146,0.8147,0,0,0,0,0,0,0,0,0,0,0,0.7759,0.776,0.7813,0.7816,0.7967,0.7968,0.8146,0.8147,0,0,0,0,0,0,0,0,0,0,0,0.7759,0.776,0.7761,0.7817,0.7967,0.7968,0.8145,0.8037,0,0,0,0,0,0,0,0,0,0,0.7893,0.7834,0.776,0.7761,0.7818,0.7966,0.7968,0.8032,0.8043,0.8071,0,0.8093,0,0.8123,0.8158,0.8159,0,0,0,0.7823,0.7824,0.7873,0.7761,0.7819,0.7966,0.7901,0.8038,0.8052,0.8087,0.8096,0.8103,0.8126,0.8159,0.816,0.8297,0.8297,0,0,0.7815,0.7781,0.7864,0.7881,0.7857,0.7896,0.7905,0.8047,0.8055,0.8096,0.8107,0.8129,0.816,0.8162,0.8296,0.8297,0,0,0,0.7786,0.7775,0.7821,0.7873,0.7902,0.79,0.7911,0.8048,0.8066,0.8109,0.8131,0.8161,0.8163,0.8296,0.8297,0.828,0,0,0,0.7781,0.7759,0.7817,0.7798,0.7899,0.7977,0.7909,0.8056,0.8073,0.813,0.8161,0.8165,0.8296,0.8296,0.8279,0.8277,0,0,0,0.7752,0.7755,0.7774,0.7796,0.786,0.7975,0.8001,0.8061,0.8086,0.8159,0.8165,0.8296,0.8296,0.8279,0.8277,0.8303,0,0,0,0.7712,0.7757,0.7773,0.7832,0.7858,0.7964,0.8001,0.8081,0.8142,0.8162,0.8296,0.8297,0.8279,0.8277,0.8303,0.8319,0.8323,0,0,0.775,0.776,0.7798,0.7817,0.7911,0.7943,0.8036,0.8122,0.816,0.8249,0.8253,0.828,0.8277,0.8303,0.8356,0.8359,0,0,0,0.7798,0.7825,0.7857,0.7913,0.798,0.8038,0.8115,0.8147,0.8224,0.8199,0.8297,0.8297,0.8314,0.8323,0.8326,0.8342,0.8299,0.8299,0.8299,0.7804,0.785,0.7915,0.7979,0.8033,0.8111,0.8159,0.8216,0.8247,0.8269,0.8296,0.8322,0.8332,0.8334,0.8351,0.8308,0.8308,0.8308,0.8308,0.7864,0.7909,0.7948,0.8025,0.8074,0.8139,0.8217,0.8236,0.8304,0.8306,0.8323,0.8321,0.8336,0.8353,0.8308,0.8308,0.8308,0.8308,0.8308,0.7873,0.7902,0.7941,0.8027,0.8088,0.8152,0.8215,0.8257,0.8297,0.8314,0.8347,0.8347,0.8353,0.8327,0.8327,0.8327,0.8327,0.8327,0.8327,0.7866,0.7911,0.7959,0.8035,0.8077,0.8137,0.8217,0.8259,0.8317,0.8342,0.8343,0.8371,0.8329,0.8317,0.8329,0.8329,0.8328,0.8328,0.8328,0.791,0.7907,0.7981,0.8023,0.8116,0.8174,0.8227,0.831,0.8351,0.8381,0.8406,0.8368,0.8381,0.838,0.8371,0.8396,0.8396,0.8396,0.8396,0.7916,0.7928,0.8014,0.8078,0.8146,0.8201,0.8285,0.8347,0.8412,0.844,0.8443,0.8434,0.8431,0.8446,0.8443,0.8435,0.8476,0.8477,0.8477,0.7946,0.7966,0.8028,0.8091,0.8167,0.8232,0.8311,0.8384,0.8456,0.8481,0.8463,0.846,0.8447,0.844,0.8463,0.8457,0.8443,0,0]},{"header":{"parameterUnit":"m.s-1","parameterCategory":1,"la1":30.2992,"la2":30.254,"lo1":-89.0895,"lo2":-89.0443,"dy":0.0025,"dx":0.0025,"nx":19,"ny":19,"refTime":"2026-03-08T03:00:00:Z","depth":0,"parameterNumber":3,"parameterNumberName":"V-component_of_WINDS"},"data":[0,0,0,1.8774,1.8775,1.882,1.882,1.8877,1.8877,0,0,0,0,0,0,0,0,0,0,0,1.8763,1.8763,1.8774,1.8775,1.882,1.882,1.8877,1.8877,0,0,0,0,0,0,0,0,0,0,0,1.8763,1.8763,1.8764,1.8776,1.882,1.882,1.8877,1.8843,0,0,0,0,0,0,0,0,0,0,1.8799,1.8791,1.8763,1.8764,1.8776,1.882,1.882,1.8841,1.8845,1.8857,0,1.887,0,1.8875,1.8881,1.8882,0,0,0,1.8774,1.8787,1.8798,1.8764,1.8776,1.882,1.8799,1.8843,1.8847,1.8862,1.8871,1.8873,1.8876,1.8882,1.8882,1.8964,1.8964,0,0,1.8771,1.8771,1.8795,1.8801,1.8796,1.8798,1.8801,1.8846,1.8854,1.8871,1.8874,1.8877,1.8882,1.8883,1.8964,1.8964,0,0,0,1.8765,1.8769,1.8779,1.8799,1.8807,1.8799,1.8803,1.8852,1.8856,1.8875,1.8877,1.8882,1.8883,1.8963,1.8964,1.8989,0,0,0,1.8764,1.8766,1.8778,1.8779,1.8806,1.8831,1.8808,1.8853,1.8858,1.8877,1.8882,1.8884,1.8963,1.8963,1.8987,1.9001,0,0,0,1.8759,1.8765,1.8773,1.8778,1.8798,1.883,1.8836,1.8854,1.8859,1.8882,1.8884,1.8962,1.8963,1.8986,1.8998,1.9024,0,0,0,1.8754,1.8793,1.8773,1.8817,1.8798,1.8845,1.8835,1.887,1.8892,1.8883,1.8963,1.8964,1.8985,1.8997,1.9022,1.9047,1.9057,0,0,1.8803,1.8798,1.8824,1.8808,1.886,1.8838,1.8893,1.8912,1.8912,1.8946,1.8948,1.8988,1.8998,1.9024,1.911,1.9118,0,0,0,1.884,1.8859,1.8872,1.8895,1.8911,1.8926,1.8937,1.8944,1.8973,1.8931,1.9003,1.9009,1.9024,1.9036,1.9043,1.9056,1.8969,1.8969,1.8969,1.891,1.891,1.8954,1.896,1.8981,1.8992,1.9009,1.902,1.9013,1.903,1.904,1.9093,1.9107,1.9112,1.9126,1.9052,1.9052,1.9052,1.9052,1.8983,1.901,1.9001,1.904,1.904,1.9071,1.9083,1.9077,1.9106,1.9084,1.9098,1.9076,1.9121,1.9133,1.9054,1.9054,1.9053,1.9053,1.9053,1.903,1.9044,1.9052,1.9085,1.911,1.9113,1.9142,1.914,1.9137,1.915,1.9162,1.9162,1.9162,1.9156,1.9156,1.9156,1.9156,1.9156,1.9157,1.9076,1.9086,1.9112,1.9133,1.9148,1.9166,1.9177,1.919,1.9204,1.92,1.92,1.9192,1.9125,1.9109,1.9159,1.9159,1.9159,1.9158,1.9158,1.9153,1.9136,1.9176,1.9191,1.9216,1.9241,1.9237,1.9265,1.9275,1.929,1.9278,1.9228,1.9223,1.9218,1.9205,1.9277,1.9277,1.9277,1.9277,1.9195,1.9192,1.9234,1.9258,1.928,1.9281,1.9326,1.9334,1.934,1.9347,1.9335,1.9317,1.9311,1.931,1.9302,1.929,1.9383,1.9383,1.9383,1.9243,1.9243,1.9283,1.929,1.9309,1.9326,1.9368,1.9394,1.9396,1.9388,1.9352,1.9347,1.9318,1.9308,1.93,1.9289,1.9267,0,0]}]]